COSMOS 2251 DEB

Satellite information

Favourite Embed

Satellite Type and Status

DEBRISIN ORBIT

Key statistics

Satellite COSMOS 2251 DEB at a glance.

Uptime

11709

Days in orbit

Revolutions

≈ 14.0

Per day

Orbit

LEO

Low Earth Orbit

Inclination

74.0

Latest

Satellite identification and parameters

Extended collection of information and parameters for COSMOS 2251 DEB.

Object identification

Identified? True

Debris? True

Object name: COSMOS 2251 DEB

International designator: 1993-036BUK

Object number (NORAD): 39553

Object ID (CCSDS): 39553

Country: COMMONWEALTH OF INDEPENDENT STATES (CIS)

Current information (Y/N): Y

RCS size: SMALL

Orbital parameters

Period: 102.925 minutes

Inclination: 74.0268 deg

SMA: 7275.12 km

Apoapsis: 1047.508 km

Periapsis: 746.462 km

RAAN: 251.849 deg

Eccentricy: 0.0206901

Argument of periapsis: 63.6212 deg

Mean anomaly: 298.5998 deg

Mean motion: 13.99079901 rev/day

Mean motion (dot): 0.00001314 rev/day2

B* drag term: 0.00076857 1/REarth

Two-line elements (TLE)

Creation date: July 3, 2025, 6:26 a.m.

Reference frame: TEME

Reference center: EARTH

Epoch: July 2, 2025, 9:53 p.m. UTC

TLE line 0: 0 COSMOS 2251 DEB

TLE line 1: 1 39553U 93036BUK 25183.91234584 .00001314 00000-0 76857-3 0 9996

TLE line 2: 2 39553 74.0268 251.8490 0206901 63.6212 298.5998 13.99079901733394

Live tracking on map

Real-time ground track for satellite COSMOS 2251 DEB.

In-orbit conjunctions

A list of the most updated potential collisions computed for object COSMOS 2251 DEB.

Target Orbit TCA Probability of collision Miss distance Type
IRIDIUM 36 LEO 2025-03-23 23:52:03 0.0001222006 806.0 (m) PAYLOAD
COSMOS 1125 LEO 2024-06-14 10:43:46 0.00020265 473.0 (m) PAYLOAD

Associated space launch

Military communications satellite. Destroyed in a collision with Iridium 33.

COSMOS 2251 DEB was lifted into orbit during the mission ‘Kosmos-3M | Strela-2M 51’, on board a Kosmos-3M space rocket.

The launch took place on June 16, 1993, 4:17 a.m. from 132/1 (132L).

For more information about the launch, click the button.

Launch to space Kosmos-3M | Strela-2M 51
Kosmos-3M | Strela-2M 51

Agency: N/A

Status: Launch Successful

Launch date: June 16, 1993, 4:17 a.m. UTC

Rocket: Kosmos-3M

Launch pad: 132/1 (132L)

Location: Plesetsk Cosmodrome, Russian Federation

...

Latest news about this satellite

There are no fresh news available about this satellite. Check back as we update our databases every day.


Newsletter sign-up

Weekly statistics, charts and insights to help you stay on top of the space industry.